Location: Fornova de Taro
(44.7000°N, 10.1000°E)
Time: 00:21:58
(UTC+00:00)

SAR-Lupe-2 - Pass Details

Date: 26 May 2022
Orbit: 480 x 482 km, 98.1° (Epoch: 30 June)

Event Time Altitude Azimuth Distance (km) Brightness Sun altitude
Rises 01:07:02 0° 18° (NNE) 2,552 8.8 -19.5°
Reaches altitude 10° 01:09:09 10° 23° (NNE) 1,668 7.5 -19.4°
Maximum altitude 01:12:38 51° 101° (E) 613 4.1 -19.1°
Enters shadow 01:13:34 39° 149° (SSE) 738 4.2 -19.0°
